Regional Weather Roundup
Issued by NWS Northern Indiana

Home | Current Version | Previous Version | Text Only | Print | Product List | Glossary Off
Versions: 1 2 3 4 5 6 7 8 9 10 11 12 13 14 15 16 17 18 19 20 21 22 23 24 25 26 27 28 29 30 31 32 33 34 35 36 37 38 39 40 41 42 43 44 45 46 47 48 49 50

847
ASUS43 KIWX 241310
RWRIWX

KIWX WEATHER ROUNDUP
NATIONAL WEATHER SERVICE NORTHERN INDIANA
800 AM EST SAT FEB 24 2018

NOTE: "FAIR" INDICATES FEW OR NO CLOUDS BELOW 12,000 FEET WITH NO
SIGNIFICANT WEATHER AND/OR OBSTRUCTIONS TO VISIBILITY.

* THESE STATIONS ARE NOT UNDER NWS QUALITY CONTROL. THEY ALSO MAY NOT
  REPORT WEATHER SUCH AS PRECIPITATION OR FOG.

INZ001>027-241400-
NORTHERN INDIANA

CITY           SKY/WX    TMP DP  RH WIND       PRES   REMARKS
GARY*          CLOUDY    36  32  87 NE10      30.18F
VALPARAISO     CLOUDY    37  32  82 E12       30.16F
MICHIGAN CITY* CLOUDY    34  32  93 NE5       30.17F WCI  30
LAPORTE*       MOCLDY    35  32  88 E10       30.16F WCI  27
SOUTH BEND     CLOUDY    35  29  78 E5        30.19R WCI  31
GOSHEN         CLOUDY    36  32  85 E9        30.17F
MONTICELLO*    DRIZZLE   36  35  95 E7        30.14F
LOGANSPORT*    DRIZZLE   36  34  93 NE3       30.16F
ROCHESTER*     LGT RAIN  37  36  93 E7        30.17S
WARSAW*        LGT RAIN  34  34 100 NE10      30.17S WCI  26
AUBURN*        LGT RAIN  36  34  93 NE8       30.20R
FORT WAYNE     LGT RAIN  38  36  92 NE9       30.18R
HUNTINGTON*    LGT RAIN  37  35  95 E6        30.17S
PERU/GRISSOM   LGT RAIN  38  38 100 NE9       30.14F
MARION*        LGT RAIN  38  38 100 CALM      30.16S

$$
INZ028>050-241400-
CENTRAL INDIANA

CITY           SKY/WX    TMP DP  RH WIND       PRES   REMARKS
LAFAYETTE      CLOUDY    38  38 100 NE10      30.13F FOG
KOKOMO*        LGT RAIN  38  37  97 E9        30.15S FOG
MUNCIE*        LGT RAIN  43  40  89 E8        30.14S FOG
INDIANAPOLIS   LGT RAIN  41  41 100 E6        30.13S

$$
MIZ043>046-050>051-056>058-064>065-071>073-077>080-241400-
SOUTHWEST LOWER MICHIGAN

CITY           SKY/WX    TMP DP  RH WIND       PRES   REMARKS
BATTLE CREEK   CLOUDY    34  29  82 NE8       30.20F WCI  27
BENTON HARBOR  CLOUDY    35  29  78 E5        30.20R WCI  31
COLDWATER*     CLOUDY    35  33  94 E8        30.18S WCI  29
HILLSDALE*     CLOUDY    34  30  86 E8        30.17F WCI  27
HOLLAND        CLOUDY    33  27  78 NE6       30.22F WCI  28
GRAND RAPIDS   CLOUDY    33  28  81 NE5       30.22S WCI  29
KALAMAZOO      CLOUDY    35  29  78 NE5       30.20S WCI  31
STURGIS*       CLOUDY    36  33  87 E5        30.17F
THREE RIVERS*  CLOUDY    36  32  85 E7        30.18F

$$
OHZ001>008-015>018-024>025-241400-
NORTHWEST OHIO

CITY           SKY/WX    TMP DP  RH WIND       PRES   REMARKS
WAUSEON*       CLOUDY    37  37 100 NE12      30.19S
DEFIANCE       CLOUDY    37  33  85 E8        30.19S
FINDLAY        CLOUDY    39  35  86 NE10      30.18S
TOLEDO EXPRESS CLOUDY    38  35  89 NE12      30.19F
TOLEDO METCALF CLOUDY    38  33  82 NE9       30.21F
LIMA           LGT RAIN  40  39  97 E10       30.15F

$$
AND FOR LAKE MICHIGAN COASTAL AND OPEN LAKE BUOY OBSERVATIONS

STATION/POSITION TEMP    WIND        PRES    VSBY  WAVE
                 AIR SEA DIR/SP/G                  HT/PER
                 (F)     (DEG/KT/KT) (MB)    (MI)  (FT/S)
CALUMET HARBOR    33      30/ 12/ 15 1021.3F
MICHIGAN CITY     34      40/ 10/ 11   N/A
BURNS HARBOR      34      70/ 11/ 18 1022.4
SAINT JOSEPH      34      40/  4/  7 1022.4

$$
&&




USA.gov is the U.S. government's official web portal to all federal, state and local government web resources and services.